Temp
48 49 49 50 51 52 53 54 54 55 57 59 61 62 61 61 61 60 60 60 60 59 59 58 58 60 59 59 59 59 58 58 54 58 57 52 48 48 45 46 44 43 44
46 46 47 48 49 49 50 51 51 52 54 54 56 57 60 61 61 61 60 61 59 59 59 59 58 59 58 59 59 58 58 59 57 54 58 49 49 49 47 45 43 43 42
43 43 44 45 45 46 47 48 48 49 49 50 52 53 54 56 59 60 61 61 61 61 60 59 59 59 58 58 58 58 59 59 58 56 56 49 45 43 40 40 40 39 40
39 40 40 41 43 43 44 45 45 46 46 47 48 50 51 53 55 56 58 60 61 61 61 61 61 60 58 59 58 58 58 57 57 56 55 44 43 36 38 39 35 35 35
36 37 38 39 40 40 40 41 42 42 44 45 45 47 48 50 52 52 53 55 57 59 61 61 62 58 51 56 59 58 58 56 55 54 52 38 37 34 41 38 42 36 33
34 34 36 37 36 35 35 36 37 38 40 42 42 43 44 47 47 45 46 50 52 54 56 59 60 48 47 46 48 51 58 57 55 53 52 47 44 44 39 39 37 34 34
30 32 32 31 30 30 31 32 33 34 36 37 38 40 40 43 45 45 43 47 49 50 52 54 56 58 50 56 50 48 49 50 54 58 53 52 51 43 44 39 37 37 37
27 26 26 25 25 27 28 28 29 31 31 33 34 36 37 40 42 43 42 44 45 46 49 51 53 55 57 57 55 54 53 54 53 54 58 57 55 49 48 47 42 37 32
23 22 23 23 23 24 24 25 27 28 29 29 31 31 32 35 39 40 41 41 41 42 46 49 51 52 52 49 53 51 51 52 53 50 52 53 49 46 46 39 36 36 30
20 21 22 22 21 20 21 22 24 24 26 28 29 31 32 33 37 38 39 38 37 39 41 43 42 44 48 48 50 51 47 50 47 38 46 48 47 44 41 46 39 38 33
21 21 21 21 20 21 21 22 23 23 25 25 27 29 30 31 33 37 39 38 37 37 39 40 43 45 45 44 46 51 51 51 44 41 43 43 42 41 41 43 42 44 37
19 18 17 18 19 21 19 20 21 22 22 23 25 26 29 32 35 37 39 40 41 39 39 41 42 44 45 45 44 46 48 47 42 40 40 38 37 37 38 38 38 36 37
14 13 14 16 18 19 17 18 17 18 18 19 21 22 24 28 30 34 37 38 40 38 40 41 41 42 42 43 43 44 41 44 40 38 38 39 39 38 35 33 32 32 32
10 12 14 14 14 16 17 17 16 16 17 18 18 19 21 23 26 29 32 34 36 37 38 39 39 40 41 41 40 42 42 44 42 40 40 40 37 34 33 34 31 31 30
11 11 11 12 12 13 15 15 17 19 20 18 20 21 20 21 24 29 30 29 30 32 34 34 34 37 38 39 39 41 42 41 39 40 39 35 34 34 33 33 33 32 31
7 8 9 10 10 12 13 13 19 22 24 25 26 25 25 28 30 31 32 33 33 34 32 32 33 35 36 37 37 38 38 38 38 38 37 35 34 34 32 33 32 33 31
4 6 8 8 9 9 10 10 9 14 21 23 24 25 27 28 29 31 33 34 34 34 31 33 33 35 36 37 38 38 37 37 37 37 36 35 35 34 32 31 31 33 31
3 4 5 6 7 8 8 9 9 8 8 11 18 20 23 25 27 28 29 30 30 34 33 33 34 35 37 37 37 38 38 37 36 36 36 35 34 33 32 31 31 31 30
1 3 4 6 6 6 7 7 8 8 8 8 11 15 17 21 22 25 27 23 29 33 34 34 35 35 36 37 37 37 37 36 35 35 35 34 33 33 32 32 31 32 30
0 2 4 3 3 4 5 5 5 5 6 7 7 9 11 13 14 14 17 20 20 32 34 34 35 35 36 36 36 37 36 35 34 34 35 34 33 33 33 32 31 30 29
-1 0 1 0 1 2 2 2 3 3 4 4 6 8 16 12 9 11 12 15 17 19 25 34 34 35 35 36 36 36 35 35 34 34 34 34 33 32 33 32 32 32 29
-2 -3 -3 -2 -1 -0 0 1 1 2 2 3 4 6 13 8 8 8 10 11 13 16 20 24 33 34 35 35 35 35 34 34 34 34 34 33 33 33 32 32 31 30 27
-4 -5 -5 -4 -3 -2 -1 -1 -1 -0 1 1 2 3 4 5 6 6 7 9 11 13 16 19 24 33 34 34 34 35 34 34 34 34 33 33 32 32 32 31 29 27 25
-7 -8 -8 -7 -6 -5 -4 -4 -3 -1 -1 -1 0 1 2 3 4 4 6 7 9 10 12 15 18 22 32 33 33 34 34 35 35 34 34 33 32 32 32 30 27 26 23
-10 -11 -11 -11 -10 -8 -7 -7 -6 -4 -3 -2 -1 -0 1 2 2 3 4 6 7 8 10 12 15 17 20 23 33 33 34 33 33 33 33 33 32 32 31 28 26 23 20
-13 -13 -13 -12 -12 -10 -11 -10 -9 -8 -6 -5 -3 -2 -1 -1 1 1 3 4 5 8 8 10 12 13 15 20 25 32 33 32 32 32 32 32 32 30 29 26 23 20 19
MSLP
1017.22 1016.81 1016.62 1016.33 1016.14 1015.68 1015.39 1015.37 1015.21 1015.03 1014.57 1014.04 1013.55 1013.20 1012.94 1012.65 1012.60 1012.57 1012.40 1011.99 1012.46 1012.25 1012.33 1012.58 1012.41 1012.56 1012.41 1012.36 1012.42 1012.33 1012.16 1012.17 1011.49 1010.93 1011.49 1011.92 1012.57 1012.99 1013.79 1013.86 1014.43 1014.83 1015.13
1018.31 1017.87 1017.59 1017.15 1016.81 1016.50 1016.07 1015.77 1015.45 1015.07 1014.77 1014.45 1014.09 1013.46 1012.78 1012.31 1012.00 1011.73 1011.70 1011.06 1011.40 1011.49 1011.25 1011.43 1011.03 1011.07 1011.03 1011.17 1011.21 1011.05 1010.99 1011.02 1010.85 1010.37 1010.92 1011.49 1011.77 1012.11 1012.78 1013.43 1013.79 1014.00 1014.47
1018.94 1018.50 1018.08 1017.70 1017.34 1017.08 1016.75 1016.37 1015.94 1015.48 1015.02 1014.53 1014.06 1013.56 1013.03 1012.45 1011.89 1011.32 1011.01 1010.25 1010.23 1010.15 1010.17 1010.15 1009.78 1009.98 1009.59 1009.63 1009.71 1009.64 1009.57 1009.60 1009.65 1009.61 1009.82 1010.70 1011.26 1011.65 1012.84 1013.25 1013.67 1014.16 1014.32
1019.55 1019.16 1018.85 1018.45 1017.99 1017.61 1017.24 1016.80 1016.31 1015.79 1015.33 1014.76 1014.14 1013.52 1012.95 1012.32 1011.83 1011.24 1010.58 1009.81 1009.59 1009.07 1008.33 1008.13 1008.31 1008.01 1007.79 1008.05 1008.25 1008.17 1008.24 1008.29 1008.18 1008.28 1008.58 1009.89 1010.42 1011.20 1011.65 1012.46 1013.39 1013.68 1014.07
1020.17 1019.71 1019.40 1018.93 1018.53 1018.23 1017.71 1017.15 1016.56 1015.98 1015.36 1014.72 1013.94 1013.15 1012.56 1011.92 1011.35 1010.94 1010.61 1010.18 1009.51 1008.41 1007.47 1006.98 1007.00 1006.49 1006.17 1005.87 1006.54 1006.57 1006.75 1006.93 1007.06 1006.99 1007.35 1008.25 1009.39 1010.34 1010.41 1011.02 1011.59 1012.35 1013.15
1020.55 1020.33 1019.78 1019.43 1019.12 1018.85 1018.19 1017.48 1016.81 1016.23 1015.43 1014.53 1013.82 1013.09 1012.12 1011.46 1010.83 1010.70 1010.48 1009.86 1008.97 1008.18 1007.22 1006.39 1005.65 1005.18 1005.35 1004.78 1004.77 1004.88 1004.92 1005.31 1005.36 1005.74 1005.68 1006.25 1006.93 1007.48 1008.37 1008.84 1010.13 1011.46 1012.97
1021.15 1020.98 1020.66 1020.49 1019.84 1019.07 1018.50 1017.72 1017.11 1016.16 1015.15 1014.41 1013.73 1012.95 1011.90 1010.92 1010.37 1010.01 1009.88 1009.54 1008.73 1007.77 1006.72 1005.69 1004.74 1003.84 1003.57 1003.13 1003.69 1003.94 1003.93 1003.46 1003.42 1003.26 1003.35 1004.08 1004.50 1005.12 1005.97 1006.89 1007.69 1008.66 1009.82
1022.41 1021.81 1021.30 1020.71 1020.02 1019.39 1018.73 1017.94 1017.12 1016.17 1015.25 1014.30 1013.35 1012.73 1011.61 1010.15 1009.95 1009.76 1009.54 1009.00 1008.01 1006.94 1005.93 1004.71 1003.90 1002.90 1002.25 1002.29 1002.46 1002.24 1002.25 1001.82 1001.72 1001.84 1001.44 1001.40 1001.17 1002.59 1003.23 1003.70 1004.76 1006.92 1008.86
1022.48 1022.05 1021.63 1021.02 1020.20 1019.39 1018.60 1017.85 1016.93 1015.85 1015.12 1014.19 1013.34 1012.37 1011.47 1009.15 1009.58 1009.52 1009.32 1008.43 1007.12 1005.87 1004.90 1003.84 1003.12 1002.11 1000.85 1000.92 1001.33 1000.76 1000.51 999.88 999.56 999.88 999.87 999.66 1000.24 1000.93 1001.59 1003.30 1004.91 1006.27 1008.24
1023.07 1022.51 1021.86 1021.11 1020.37 1019.55 1018.89 1018.07 1017.18 1016.37 1015.00 1013.86 1012.34 1011.80 1010.74 1009.09 1008.39 1008.77 1008.61 1007.69 1006.30 1005.29 1003.79 1002.77 1001.85 1001.18 999.95 1000.02 1000.29 999.56 998.94 997.77 998.97 999.25 999.20 999.17 999.06 999.34 999.83 1000.32 1002.13 1003.38 1005.67
1023.48 1022.81 1022.04 1021.37 1020.70 1019.91 1019.19 1018.34 1017.36 1016.15 1014.84 1013.89 1012.07 1010.83 1010.14 1009.37 1007.34 1007.32 1007.15 1006.43 1005.61 1004.36 1003.10 1001.62 1000.82 999.93 999.16 998.90 998.69 998.44 997.06 996.91 997.44 997.84 997.96 998.44 998.94 999.07 998.53 999.54 1000.28 1000.82 1002.45
1023.70 1023.03 1022.46 1021.78 1021.03 1020.05 1019.24 1018.28 1017.41 1016.21 1014.70 1013.30 1011.94 1009.85 1009.12 1008.28 1007.46 1005.87 1005.71 1005.36 1004.67 1003.53 1001.94 1000.78 999.86 999.46 998.66 997.89 997.47 996.51 996.07 996.14 996.14 996.80 997.14 997.62 998.09 998.29 998.48 998.48 999.19 1000.11 1001.48
1023.87 1023.19 1022.46 1021.74 1021.00 1020.26 1019.46 1018.23 1017.30 1016.27 1014.82 1013.18 1012.19 1010.41 1008.03 1007.74 1006.90 1006.31 1004.92 1004.31 1003.46 1002.15 1000.89 999.59 998.96 998.38 997.70 996.85 995.86 995.13 995.03 995.12 994.97 995.60 995.45 995.83 996.21 996.85 997.80 998.93 999.31 1000.09 1001.71
1024.17 1023.42 1022.63 1021.92 1021.08 1020.43 1019.50 1018.38 1017.19 1016.00 1014.59 1013.05 1011.95 1010.46 1008.66 1006.53 1005.69 1005.41 1004.56 1003.36 1002.42 1001.21 1000.10 999.08 998.12 997.26 996.45 995.41 994.48 993.53 993.33 993.21 993.30 993.37 993.94 994.59 995.52 996.20 997.13 997.66 998.76 999.88 1001.73
1024.40 1023.65 1022.87 1022.20 1021.28 1020.13 1019.25 1018.05 1016.70 1015.60 1014.57 1012.69 1011.23 1010.03 1008.56 1005.97 1004.68 1004.90 1004.34 1003.08 1002.11 1000.87 1000.05 998.90 997.36 996.00 994.71 993.86 992.83 991.90 991.49 991.77 992.00 992.15 992.75 993.90 994.37 994.82 995.60 996.52 996.65 998.87 1000.09
1024.61 1023.76 1023.08 1022.23 1021.22 1020.12 1018.57 1016.56 1015.99 1014.46 1013.25 1012.17 1010.60 1009.54 1007.20 1006.58 1004.20 1003.17 1002.61 1001.47 1000.21 999.05 998.04 996.44 995.08 994.14 993.12 992.21 991.59 990.89 990.52 990.39 990.51 991.24 991.57 992.20 992.78 993.07 993.98 995.56 995.23 996.96 998.29
1024.87 1023.87 1022.87 1022.09 1020.96 1019.69 1018.37 1016.89 1014.20 1012.18 1012.43 1010.77 1009.49 1008.06 1007.08 1005.27 1003.30 1002.01 1000.80 999.26 997.61 997.01 995.80 993.94 993.00 992.28 991.44 990.69 990.13 989.82 989.31 989.39 989.71 989.95 990.40 990.59 991.03 991.63 992.55 993.13 995.16 995.91 997.06
1024.62 1023.80 1022.80 1021.78 1020.71 1019.58 1018.51 1017.06 1015.66 1013.65 1010.52 1007.56 1008.28 1007.40 1005.73 1004.38 1002.52 1001.41 1000.05 998.25 995.33 994.02 993.30 991.94 990.89 990.33 989.79 989.31 988.80 988.43 988.23 988.48 988.67 988.73 989.06 989.36 989.62 990.12 990.96 991.49 993.46 994.10 995.45
1024.43 1023.51 1022.66 1021.67 1020.73 1019.55 1018.26 1016.87 1015.43 1013.71 1011.99 1009.97 1007.65 1006.12 1005.10 1003.97 1002.39 1000.81 999.37 997.60 994.77 992.27 991.41 990.20 989.21 988.53 988.01 987.61 987.26 987.05 986.97 987.04 987.21 987.58 988.00 988.29 988.39 988.56 989.42 989.38 991.91 992.90 993.47
1024.12 1023.41 1022.47 1021.55 1020.34 1019.11 1017.93 1016.52 1015.04 1013.61 1011.98 1010.26 1008.52 1006.86 1004.98 1003.38 1001.59 1000.55 999.17 997.39 995.38 992.37 989.77 988.72 987.65 987.07 986.45 985.88 985.62 985.66 985.52 985.58 985.98 986.31 986.56 987.06 987.30 987.48 988.10 988.57 989.57 991.36 991.79
1023.58 1022.76 1022.10 1021.21 1020.06 1018.68 1017.36 1016.28 1015.07 1013.59 1012.13 1010.55 1008.77 1007.29 1005.72 1003.90 1002.43 1001.23 999.68 997.96 996.04 993.91 991.71 987.87 986.56 985.66 984.93 984.38 984.02 983.93 983.98 984.07 984.32 984.77 985.15 985.82 986.27 986.39 986.91 987.75 988.41 990.34 990.70
1023.26 1022.51 1021.79 1020.86 1019.62 1018.61 1017.44 1015.97 1014.96 1013.78 1011.97 1010.51 1008.71 1007.07 1005.44 1004.17 1003.04 1001.49 999.66 997.90 996.13 994.25 992.10 989.73 986.08 984.75 983.84 983.21 982.79 982.75 982.73 982.82 983.09 983.46 983.86 984.48 985.14 985.42 986.05 986.71 987.79 989.17 989.91
1023.17 1022.39 1021.48 1020.51 1019.55 1018.33 1017.19 1016.02 1014.59 1013.68 1011.96 1010.35 1008.93 1007.31 1005.75 1004.44 1003.13 1001.05 999.68 998.12 996.14 994.07 991.98 990.07 987.68 984.31 983.29 982.51 981.91 981.61 981.60 981.63 981.85 982.28 982.72 983.24 983.85 984.42 984.91 985.72 986.97 988.15 989.23
1023.13 1022.48 1021.55 1020.50 1019.42 1018.35 1017.19 1015.91 1014.65 1013.63 1012.05 1010.57 1009.31 1007.71 1006.10 1004.87 1002.80 1001.27 1000.07 998.38 996.35 994.34 992.54 990.49 988.34 986.09 983.32 981.99 981.16 980.79 980.59 980.58 980.74 981.16 981.55 982.05 982.58 983.27 984.01 985.02 986.09 987.10 988.55
1023.00 1022.37 1021.51 1020.61 1019.57 1018.47 1017.16 1016.13 1015.06 1013.67 1012.20 1011.07 1009.58 1008.00 1006.54 1004.87 1003.13 1001.78 1000.28 998.46 996.63 994.66 992.49 990.69 988.64 986.76 984.77 982.87 980.73 980.08 979.80 979.80 979.97 980.30 980.79 981.29 981.85 982.42 983.29 984.23 985.49 987.05 988.15
1022.65 1022.04 1021.31 1020.51 1019.58 1018.65 1017.69 1016.52 1015.25 1014.07 1012.80 1011.40 1010.01 1008.39 1006.75 1005.16 1003.75 1002.21 1000.47 998.61 996.74 994.57 992.76 990.95 989.00 987.01 985.00 982.98 981.24 979.75 979.17 978.99 979.18 979.56 980.02 980.63 981.14 982.29 983.23 984.29 985.46 986.94 987.46
Wind_Speed
12 10 10 10 9 7 7 8 8 9 10 11 10 10 9 10 10 11 14 13 14 14 14 14 17 16 12 11 11 12 13 12 15 12 8 7 6 8 7 7 9 8 8
11 10 10 9 9 9 9 9 8 9 10 10 11 11 11 10 9 12 14 12 13 15 16 16 18 12 16 16 12 15 14 14 13 17 10 5 6 9 10 9 7 6 7
11 11 10 11 11 10 10 10 9 9 10 10 10 11 12 11 12 11 12 13 14 15 15 16 17 15 17 14 15 14 14 12 13 13 11 3 2 4 4 3 5 3 4
11 10 10 10 10 11 11 11 10 10 10 10 11 11 11 12 12 12 12 13 14 15 16 17 19 19 19 19 16 17 15 13 12 13 11 5 3 2 3 5 4 3 3
11 10 10 10 9 11 12 12 13 12 12 11 12 12 12 12 10 10 11 13 15 16 17 17 19 20 23 21 13 16 16 14 13 12 12 4 4 4 11 5 8 5 2
11 12 11 11 12 12 13 13 13 12 13 13 13 13 15 11 15 15 13 14 15 16 18 19 18 15 18 22 25 26 20 16 18 14 12 11 12 10 7 8 7 5 4
11 11 11 12 13 13 13 13 13 14 14 14 14 14 16 17 21 20 16 14 16 17 18 18 18 15 14 16 22 26 27 27 30 20 17 17 16 14 13 11 8 7 6
9 11 11 13 13 13 13 14 14 14 14 14 15 15 17 17 24 24 20 16 17 19 20 21 20 21 21 19 17 17 21 23 24 20 21 20 20 17 21 17 15 9 6
12 13 14 14 15 15 15 16 15 15 15 16 16 18 18 22 23 24 21 16 18 21 20 20 20 22 27 21 17 20 21 21 21 29 32 28 23 25 20 11 9 11 3
14 14 14 15 16 17 17 17 15 15 16 15 18 16 17 21 26 26 22 14 18 15 20 21 25 23 31 23 17 18 17 23 14 7 14 17 21 24 31 20 15 14 7
14 15 15 16 17 16 17 16 17 17 17 18 20 18 19 17 22 26 24 16 14 16 16 16 15 24 24 24 25 20 23 17 16 15 13 11 10 12 13 12 16 14 12
14 15 16 16 14 14 18 16 16 16 18 17 18 20 14 16 22 26 26 29 27 19 21 18 19 29 31 27 22 30 33 20 9 11 11 10 10 10 10 9 11 6 5
14 15 15 16 15 15 16 17 14 14 14 14 13 16 18 14 14 28 30 29 30 20 15 22 29 29 31 28 32 31 23 15 11 12 13 13 13 11 10 9 7 12 9
14 15 15 15 16 15 12 12 12 12 13 13 12 14 16 19 16 14 14 16 22 19 19 15 18 23 29 28 21 19 15 15 15 14 14 12 9 11 11 9 10 10 7
14 14 14 12 14 15 14 13 12 13 15 15 13 15 16 20 19 29 29 20 20 25 27 19 19 18 19 18 15 15 13 13 14 13 12 11 12 12 11 12 11 12 9
13 11 11 12 12 13 14 15 20 26 28 29 31 24 17 31 42 40 39 40 42 43 23 20 19 18 19 17 15 14 12 14 13 12 12 14 14 15 13 11 13 14 14
13 14 12 13 12 13 13 14 19 16 26 25 25 29 32 37 40 41 41 40 44 39 20 19 18 18 18 16 14 14 13 13 13 13 14 15 14 14 18 16 13 14 13
12 17 12 11 12 13 13 14 13 15 20 18 18 27 30 35 38 41 43 38 24 19 17 17 17 17 16 16 14 14 13 11 13 14 14 14 14 15 16 15 16 17 16
12 10 11 12 12 14 13 13 13 14 14 16 18 20 19 32 36 39 38 16 21 17 15 15 15 15 15 15 15 14 14 13 14 14 13 13 14 15 16 16 17 22 21
10 15 15 11 12 12 12 12 13 14 15 14 15 16 17 20 17 18 17 17 18 20 14 15 15 14 15 15 14 14 13 13 13 14 14 14 14 14 15 17 18 19 18
9 10 14 11 12 12 11 12 13 13 14 14 15 16 34 19 17 16 16 16 17 18 22 15 14 14 14 14 13 13 14 14 14 15 14 14 14 14 14 15 16 16 17
10 10 11 11 11 12 12 12 12 14 14 15 16 17 32 14 14 15 17 17 18 18 17 21 15 13 12 12 12 12 13 14 13 14 14 13 13 14 13 15 16 16 17
10 12 12 11 12 15 12 12 12 13 14 15 16 15 15 14 14 16 17 18 18 18 17 18 20 14 11 11 10 12 13 14 13 14 14 13 13 13 14 15 16 17 17
9 11 12 12 11 12 12 13 13 16 15 14 15 15 15 16 16 18 18 17 18 18 17 17 17 23 17 11 10 10 12 13 12 14 19 15 14 16 13 15 17 20 17
8 9 10 10 11 12 13 13 13 14 14 14 14 14 15 16 16 16 17 16 17 18 19 19 16 21 21 27 17 15 16 16 13 13 11 13 16 18 15 14 17 17 20
7 8 9 9 9 10 11 12 13 13 14 14 14 14 15 15 16 16 16 18 18 18 21 16 19 25 26 19 20 17 15 15 15 17 13 12 12 12 12 14 22 16 23
Wind_Direction
20 18 19 15 10 16 26 12 3 345 343 339 331 305 262 248 236 232 238 235 241 242 237 238 241 239 238 235 232 229 231 227 239 249 232 191 182 171 177 176 167 171 178
7 8 11 11 8 7 7 360 354 350 341 335 326 321 313 292 260 242 244 243 243 244 244 240 241 234 237 238 235 233 234 230 239 246 232 195 190 192 183 178 179 172 168
1 -0 1 3 1 358 353 348 345 341 333 326 323 319 313 305 295 274 256 249 247 240 244 239 241 238 239 237 234 237 235 233 235 238 240 171 168 154 135 132 168 167 165
358 354 352 349 347 346 339 337 334 331 321 317 311 304 299 297 293 288 283 275 260 255 249 241 246 235 231 233 231 232 232 234 228 229 228 182 184 170 141 172 173 189 156
348 345 338 335 341 341 335 332 326 320 313 305 304 303 301 296 294 297 294 288 281 275 264 259 252 247 241 230 229 233 232 230 231 227 224 154 169 162 194 176 198 162 147
344 335 335 340 344 333 331 326 321 313 310 309 304 300 299 291 289 283 285 290 287 280 275 269 261 250 244 235 225 229 226 226 229 232 227 217 199 199 171 180 161 144 184
343 342 348 338 331 332 327 325 320 317 314 308 304 301 294 290 291 292 290 287 286 281 277 274 272 263 251 248 233 231 231 224 227 224 218 218 212 191 184 180 177 167 169
341 343 338 335 330 328 326 323 318 314 312 309 305 302 296 290 292 293 291 286 283 277 271 269 265 265 262 254 242 234 231 233 231 232 230 228 211 192 193 194 184 146 85
352 343 338 334 331 330 328 325 321 317 314 306 303 300 294 290 296 299 297 288 278 277 274 269 263 263 258 253 242 239 233 237 235 231 231 228 204 184 171 134 157 157 130
346 338 334 334 333 330 326 324 320 314 310 310 303 295 290 295 299 299 293 281 277 277 275 272 262 255 260 256 240 239 242 240 229 230 230 232 196 184 173 182 165 170 137
338 334 333 332 328 322 318 316 314 310 307 304 299 299 293 289 294 296 293 280 274 277 275 278 274 270 265 255 242 248 242 243 223 216 219 212 197 185 182 180 180 178 164
335 333 329 324 320 316 313 309 307 303 300 300 300 298 295 296 293 297 296 294 289 278 277 275 275 280 281 272 250 241 247 239 215 211 204 197 187 179 188 170 162 126 145
334 329 325 322 317 315 309 305 306 302 298 298 299 300 301 301 297 298 302 298 292 280 272 273 273 275 277 277 267 249 234 238 214 208 207 201 195 178 155 123 105 99 79
328 325 323 318 313 307 302 298 296 297 294 293 297 296 299 300 300 303 298 297 293 293 297 290 278 271 269 265 267 250 234 232 219 213 210 199 172 161 163 164 148 137 122
324 319 316 311 308 305 296 295 293 286 286 293 294 293 299 297 296 297 297 293 287 280 286 281 276 273 274 270 263 250 234 222 215 212 198 179 181 169 174 176 150 155 154
319 316 311 308 307 299 301 299 292 295 296 292 293 291 293 287 294 296 293 290 286 283 276 270 268 267 266 263 259 251 230 216 211 205 193 186 188 179 165 185 157 172 158
311 309 309 304 300 304 306 306 311 306 298 302 304 306 304 301 304 302 298 298 287 283 271 266 265 262 263 256 252 246 231 219 205 203 199 194 185 180 173 160 177 169 161
305 304 299 301 302 304 301 302 300 306 314 317 317 313 310 311 314 313 309 307 295 274 262 262 260 258 259 255 250 245 235 218 211 207 204 195 185 182 176 169 178 170 162
307 299 302 299 301 296 298 299 299 301 303 305 311 313 317 317 316 311 314 302 295 273 270 264 259 256 253 250 246 237 228 221 209 205 205 199 190 180 185 173 176 178 164
297 296 295 301 299 300 302 303 305 307 305 306 310 314 320 319 323 321 313 314 313 301 272 267 262 258 254 244 237 236 228 215 209 209 205 200 193 188 184 183 171 177 170
304 304 310 300 302 304 305 307 308 304 307 306 307 311 318 326 319 314 314 312 313 309 314 279 267 263 255 244 237 231 222 216 210 206 205 200 194 191 186 184 174 180 162
313 313 311 305 304 305 306 306 306 305 306 308 309 312 322 321 317 314 316 314 314 311 307 315 285 268 256 244 234 224 220 216 209 207 206 199 197 193 186 180 175 173 161
313 315 312 309 308 308 308 308 311 308 310 314 313 315 320 321 316 324 320 317 315 316 318 311 316 288 267 251 233 224 218 215 209 201 200 196 194 192 185 180 175 169 164
317 309 310 311 312 311 310 313 312 309 314 316 314 314 320 316 323 325 320 317 319 317 316 315 313 321 298 260 240 229 225 222 211 206 200 198 194 188 185 178 176 170 161
306 304 308 309 310 311 316 316 311 313 316 314 314 316 315 319 322 321 319 319 322 320 319 318 316 322 319 321 261 233 223 215 205 196 195 201 198 191 184 174 169 166 158
295 297 301 302 304 308 310 310 313 314 314 314 313 314 317 320 318 318 320 324 323 323 323 318 316 321 321 319 323 268 237 217 202 192 189 191 182 176 172 169 163 161 156